Powrót do katalogu

HAWK-6C

AktywnyNaukaVLEO
NORAD 55326·PAYLOAD·🇺🇸 United States

Wystrzelony Jan 24, 2023 z Wallops Flight Facility

Loading…

Następne Przeloty (najbliższe 24 godziny)

TLE

ŚwieżeSource: Space-Track

Epoka: Sep 14, 2026, 03:34 UTC

1 55326U 23011C   26257.14924168  .00003883  00000-0  16683-3 0  9994
2 55326  40.4964 189.7379 0004365 282.1255  77.9066 15.23599909201423

Śledź HAWK-6C w czasie rzeczywistym z AllMySat

Download on the App Store